Regional Weather Roundup
Issued by NWS

Home | Current Version | Previous Version | Graphics & Text | Print | Product List | Glossary On
Versions: 1 2 3 4 5 6 7 8 9 10 11 12 13 14 15 16 17 18 19 20 21 22 23 24 25 26 27 28 29 30 31 32 33 34 35 36 37 38 39 40 41 42 43 44 45 46 47 48 49 50
000
ASUS43 KLOT 241712
RWRIL

ILLINOIS REGIONAL WEATHER ROUNDUP
NATIONAL WEATHER SERVICE CHICAGO/ROMEOVILLE IL
1100 AM CST TUE JAN 24 2017

NOTE: "FAIR" INDICATES FEW OR NO CLOUDS BELOW 12,000 FEET WITH NO
SIGNIFICANT WEATHER AND/OR OBSTRUCTIONS TO VISIBILITY.

* THESE STATIONS ARE NOT UNDER NWS QUALITY CONTROL. THEY ALSO MAY NOT
  REPORT WEATHER SUCH AS PRECIPITATION OR FOG.

ILZ001-002-007-009-015-016-024-241800-
NORTHWEST ILLINOIS

CITY           SKY/WX    TMP DP  RH WIND       PRES   REMARKS
MOLINE         CLOUDY    37  30  75 SE8       29.88F WCI  31
STERLING*      CLOUDY    36  33  89 CALM      29.90F
SAVANNA*       CLOUDY    35  31  87 CALM      29.89F
$$

ILZ003-004-008-010-011-017-018-241800-
NORTH CENTRAL ILLINOIS

CITY           SKY/WX    TMP DP  RH WIND       PRES   REMARKS
ROCKFORD       CLOUDY    36  30  79 CALM      29.91S
FREEPORT*      CLOUDY    34  30  85 CALM      29.91S
ROCHELLE*      CLOUDY    35  31  85 CALM      29.90F
DE KALB*       CLOUDY    34  32  92 N3        29.90F
PERU*          CLOUDY    36  32  87 CALM      29.90F
$$

ILZ005-006-012>014-019>023-241800-
NORTHEAST ILLINOIS

CITY           SKY/WX    TMP DP  RH WIND       PRES   REMARKS
CHICAGO-OHARE  CLOUDY    35  31  85 N6        29.89S WCI  30
CHICAGO-MIDWAY CLOUDY    37  31  78 NW5       29.90R WCI  33
AURORA         CLOUDY    37  32  82 W8        29.90R WCI  31
LANSING*       CLOUDY    37  33  87 CALM      29.90S
JOLIET*        CLOUDY    38  32  79 W5        29.91S WCI  35
WAUKEGAN       CLOUDY    36  32  85 N6        29.87F WCI  31
DUPAGE AIRPORT CLOUDY    35  30  82 N7        29.89R WCI  29
KANKAKEE*      CLOUDY    38  32  79 CALM      29.92R
WHEELING       CLOUDY    35  31  85 NW8       29.90S WCI  29
MORRIS*        CLOUDY    38  32  78 CALM      29.90F
ROMEOVILLE*    CLOUDY    36  34  90 W5        29.90S WCI  32
NORTHERLY ISL    N/A     37  31  79 N5          N/A  WCI  33
$$

LMZ740>746-241800-
SOUTHERN LAKE MICHIGAN

STATION/POSITION SKY/WX   TEMP    WIND        PRES    VSBY  WAVE
                          AIR SEA DIR/SP/G                  HT/PER
                          (F)     (DEG/KT/KT) (MB)    (MI)  (FT/S)
HARRISON CRIB              36     360/  8/  8   N/A
BURNHAM HARBOR             37     350/  4/  5   N/A
CALUMET HARBOR             36      20/  4/  5 1011.7F
BURNS HARBOR               35     330/  5/  6 1012.9S
$$

ILZ025>027-034>036-040-047-049-050-058-095>099-241800-
WEST-CENTRAL ILLINOIS

CITY           SKY/WX    TMP DP  RH WIND       PRES   REMARKS
QUINCY         CLOUDY    36  31  82 SE9       29.86F WCI  29
GALESBURG*     CLOUDY    35  32  87 E6        29.89S WCI  30
MACOMB*        CLOUDY    37  32  84 SE10      29.90F WCI  29
JACKSONVILLE*  CLOUDY    38  31  78 SE9       29.91R WCI  31
PITTSFIELD*    CLOUDY    37  32  82 E8        29.88F WCI  31
$$

ILZ028>032-037-038-041>044-048-051>054-059>061-241800-
CENTRAL ILLINOIS

CITY           SKY/WX    TMP DP  RH WIND       PRES   REMARKS
PONTIAC        CLOUDY    39  37  91 CALM      29.92S
DECATUR        CLOUDY    39  34  82 E6        29.90F WCI  35
PEORIA         CLOUDY    38  33  82 E5        29.90F WCI  34
LACON*         CLOUDY    37  33  85 CALM      29.90S
LINCOLN*       CLOUDY    39  33  78 SE6       29.90F WCI  35
SPRINGFIELD    CLOUDY    41  33  73 SE7       29.90F
TAYLORVILLE    CLOUDY    39  32  75 CALM      29.91S
$$

ILZ033-039-045-046-055>057-062-063-241800-
EAST-CENTRAL ILLINOIS

CITY           SKY/WX    TMP DP  RH WIND       PRES   REMARKS
CHAMPAIGN      CLOUDY    40  31  70 CALM      29.91R
RANTOUL*       CLOUDY    41  34  77 CALM      29.91F
MATTOON        CLOUDY    39  34  82 E5        29.89F
PARIS*         CLOUDY    40  34  80 CALM      29.92S
$$

ILZ079-100>102-241800-
SOUTHWEST ILLINOIS

CITY           SKY/WX    TMP DP  RH WIND       PRES   REMARKS
ALTON          PTSUNNY   41  32  70 SE8       29.90F
BELLEVILLE     MOSUNNY   44  35  69 E8        29.88F
CAHOKIA*       PTSUNNY   44  33  65 SE10      29.88F
SPARTA*        SUNNY     43  33  69 SE8       29.90F
$$

ILZ064>066-069>071-074>076-080>082-084>086-088>090-092>094-241800-
SOUTH-CENTRAL ILLINOIS

CITY           SKY/WX    TMP DP  RH WIND       PRES   REMARKS
CARBONDALE     SUNNY     44  36  73 E9        29.90F
CAIRO*         SUNNY     45  36  70 SE5       29.94R
EFFINGHAM*     CLOUDY    41  35  79 E3        29.93R
MARION         MOSUNNY   48  36  61 SE9       29.92F
MT. VERNON     MOSUNNY   44  34  67 VRB6      29.92S
CENTRALIA*     MOSUNNY   45  35  69 SE5       29.91S
SALEM*         PTSUNNY   43  34  68 CALM      29.91S
METROPOLIS*    SUNNY     46  35  66 CALM      29.92F
$$

ILZ067-068-072-073-078-083-087-091-241800-
SOUTHEAST ILLINOIS

CITY           SKY/WX    TMP DP  RH WIND       PRES   REMARKS
LAWRENCEVILLE  CLOUDY    42  35  76 E3        29.92F
FLORA*         CLOUDY    44  35  71 SE3       29.92R
FAIRFIELD*     PTSUNNY   44  35  68 SE3       29.91S
HARRISBURG*    MOSUNNY   43  35  73 SE5       29.93F
ROBINSON*      CLOUDY    40  33  77 CALM      29.93F
CARMI*         PTSUNNY   43  35  74 SE5       29.92S
$$

ABBREVIATIONS USED IN REMARKS
   TC - TEMPERATURE IN CELSIUS
  WCI - WIND CHILL INDEX
   HX - HEAT INDEX
  VSB - VISIBILITY
$$




USA.gov is the U.S. government's official web portal to all federal, state and local government web resources and services.